Starlink 32107

operational
NORAD ID: 59694 Int'l Des: 2024-086 Owner: SPXS Country: US Constellation: starlink
LEOCIRCULAR

关于 Starlink 32107

正在加载描述...

实时位置

正在加载3D地球...

即将过境

高度历史

Altitude vs Time

uPlot chart will show altitude changes over time

两行轨道根数

1 59694U 24086N 25352.44351092 .00000364 00000-0 22739-4 0 9998
2 59694 43.0012 158.9870 0001177 277.9115 82.1603 15.27580339 91688
Epoch: Dec 18, 2025 • Age: 19 hours

当前状态

高度 492.4 km
速度 7.62 km/s
星下点 -35.41°S, 61.09°W
发射日期 May 8, 2024
运行时间 1.6 years
类型 internet

技术详情

分类 Payload
质量 730.00 kg
干质量 700.00 kg
总质量 730.00 kg
长度 0.30 m
直径 4.10 m
跨度 29.00 m
形状 Box + pan
制造商 SPXS
平台类型 Starlink V2M
阶段状态 In Orbit
所有者/国家 SPXS/US

大型星座

Loading constellations...